Regional Weather Roundup
Issued by NWS

Home | Current Version | Previous Version | Text Only | Print | Product List | Glossary Off
Versions: 1 2 3 4 5 6 7 8 9 10 11 12 13 14 15 16 17 18 19 20 21 22 23 24 25 26 27 28 29 30 31 32 33 34 35 36 37 38 39 40 41 42 43 44 45 46 47 48 49 50

000
ASUS43 KLMK 110010
RWRKY
KENTUCKY REGIONAL WEATHER ROUNDUP
NATIONAL WEATHER SERVICE LOUISVILLE KY
700 PM EST WED FEB 10 2016

NOTE "FAIR" INDICATES FEW OR NO CLOUDS BELOW 12,000 FEET
WITH NO SIGNIFICANT WEATHER AND/OR OBSTRUCTIONS TO VISIBILITY.

KYZ001>023-026-027-061>063-070>075-110100-
WESTERN AND SOUTH CENTRAL KENTUCKY

CITY           SKY/WX    TMP DP  RH WIND       PRES   REMARKS
PADUCAH        CLOUDY    24  20  84 CALM      30.18R
HENDERSON      CLOUDY    23  18  80 W9        30.18R WCI  13
OWENSBORO      LGT SNOW  23  18  81 W13       30.18R WCI  11
HOPKINSVILLE   FLURRIES  23  19  84 W7        30.18R WCI  14
BOWLING GREEN  CLOUDY    26  11  52 W12       30.17R WCI  16
GLASGOW        CLOUDY    24  12  59 W9        30.15R WCI  15
$$

KYZ024-025-028>034-038-045-046-053-110100-
NORTH CENTRAL KENTUCKY

CITY           SKY/WX    TMP DP  RH WIND       PRES   REMARKS
LOUISVILLE/SDF MOCLDY    22   7  52 W13       30.14R WCI  10
LOUISVILLE/LOU MOCLDY    22   7  52 W14       30.14R WCI   9
FORT KNOX      CLOUDY    20   9  60 W8        30.11R WCI  11
$$

KYZ035>037-039>044-047>052-055>060-089>105-110100-
NORTHEAST KENTUCKY

CITY           SKY/WX    TMP DP  RH WIND       PRES   REMARKS
LEXINGTON      CLOUDY    16   6  65 W6        30.09R WCI   7
COVINGTON      CLOUDY    17   5  59 W6G18     30.07R WCI   9
FRANKFORT      PTCLDY    19   6  57 W6        30.10R WCI  11
$$

KYZ054-064>069-076>088-106>120-110100-
SOUTHEAST KENTUCKY

CITY           SKY/WX    TMP DP  RH WIND       PRES   REMARKS
JACKSON        CLOUDY    17   7  64 VRB5      30.06R WCI  10
LONDON         PTCLDY    18   7  62 W3        30.09R
SOMERSET       CLOUDY    21   9  58 W7        30.13R WCI  13
MIDDLESBORO    MOCLDY    22   8  54 CALM      30.09R
MONTICELLO     CLOUDY    23  11  60 W13G22    30.13R WCI  11
$$





USA.gov is the U.S. government's official web portal to all federal, state and local government web resources and services.